Voltar ao catálogo

CZ-3A DEB

LostHEO
NORAD 35554·DEBRIS·🇨🇳 China

Lançado Feb 2, 2007 de Xichang Satellite Launch Center

Loading…

Próximas Passagens (próximas 24 horas)

TLE

ObsoletoSource: Space-Track

Época: Mar 4, 2026, 12:16 UTC

1 35554U 07003N   26063.51129178 -.00000137  00000-0 -10255-2 0  9991
2 35554  23.5368 258.3844 7514131 233.5241  32.1024  1.86114180 85372

Acompanhe CZ-3A DEB em tempo real com AllMySat

Download on the App Store